Weather in Axminster

United Kingdom     50°47′10″N   2°59′18″W
temp.,
°C
wind,
m/s
gust,
m/s
humid.,
%
clouds,
%
prec.,
mm/h
press.,
hPa
HPBL,
m
8 march, mon
mon800:000nne23840 0.0 102686
03:000n22840 0.0 102566
06:000n22840 0.0 102564
09:00+4nnw12704 0.0 1026189
12:00+7wsw116411 0.0 1025690
15:00+7sw336993 0.0 1024431
18:00+5wsw227880 0.0 102384
21:00+2nw128669 0.0 102466
9 march, tue
tue900:00+2nw238536 0.0 102466
03:00+1wnw238434 0.0 102376
06:00+1wnw228432 0.0 102273
09:00+5wsw237117 0.0 1022265
12:00+7ssw567045 0.0 1021591
15:00+7ssw897588 0.0 1019787
18:00+6ssw6118394 0.0 1017653
21:00+6ssw91383100 0.0 1016836
10 march, wed
wed1000:00+7ssw101583100 0.1 1013934
03:00+7ssw121892100 0.7 1010844
06:00+8sw121995100 2.7 1008753
09:00+9sw111797100 2.4 1007613
12:00+10sw81398100 3.1 1006480
15:00+11sw101696100 0.3 1003603
18:00+11sw111895100 0.3 1001751
21:00+10sw132195100 0.7 999888
11 march, thu
thu1100:00+11wsw122187100 1.4 9981263
03:00+8sw13238364 0.1 9971474
06:00+7wsw14238869 0.6 9971438
09:00+8wsw13227550 0.1 9991773
12:00+9w14216346 0.4 10022097
15:00+8w13206664 0.5 10032032
18:00+6w10176962 0.6 10061322
21:00+6w916700 0.0 10091037
12 march, fri
fri1200:00+5w814750 0.0 1011825
03:00+5wsw8147513 0.0 1010823
06:00+6wsw9157731 0.0 1009967
09:00+8wsw9157586 0.1 10071330
12:00+9sw11167893 0.6 10061467
15:00+7w101591100 1.8 10041144
18:00+5wsw91393100 2.8 1003801
21:00+4w7148249 0.4 1004659